Time,TemperatureF,DewpointF,PressureIn,WindDirection,WindDirectionDegrees,WindSpeedMPH,WindSpeedGustMPH,Humidity,HourlyPrecipIn,Conditions,Clouds,dailyrainin,SoftwareType,DateUTC
2013-01-05 00:02:00,35.1,21.0,30.01,WNW,288,3.0,9.0,57,0.00,,,0.00,weatherlink.com 1.10,2013-01-05 05:02:00,
2013-01-05 00:17:00,35.2,21.0,30.01,WNW,287,7.0,10.0,57,0.00,,,0.00,weatherlink.com 1.10,2013-01-05 05:17:00,
2013-01-05 00:32:00,35.3,21.0,30.01,West,281,8.0,11.0,56,0.00,,,0.00,weatherlink.com 1.10,2013-01-05 05:32:00,
2013-01-05 00:47:00,35.2,21.0,30.01,NW,322,2.0,10.0,56,0.00,,,0.00,weatherlink.com 1.10,2013-01-05 05:47:00,
2013-01-05 01:02:00,35.1,21.0,30.02,WNW,295,7.0,8.0,57,0.00,,,0.00,weatherlink.com 1.10,2013-01-05 06:02:00,
2013-01-05 01:17:00,35.2,20.0,30.02,West,273,9.0,12.0,55,0.00,,,0.00,weatherlink.com 1.10,2013-01-05 06:17:00,
2013-01-05 01:32:00,35.2,20.0,30.02,West,267,1.0,11.0,54,0.00,,,0.00,weatherlink.com 1.10,2013-01-05 06:32:00,
2013-01-05 01:47:00,35.1,20.0,30.03,WNW,301,5.0,13.0,54,0.00,,,0.00,weatherlink.com 1.10,2013-01-05 06:47:00,
2013-01-05 02:02:00,35.0,20.0,30.04,West,271,6.0,13.0,54,0.00,,,0.00,weatherlink.com 1.10,2013-01-05 07:02:00,
2013-01-05 02:17:00,34.8,20.0,30.05,West,263,5.0,8.0,55,0.00,,,0.00,weatherlink.com 1.10,2013-01-05 07:17:00,
2013-01-05 02:32:00,34.6,20.0,30.06,NNW,333,6.0,11.0,55,0.00,,,0.00,weatherlink.com 1.10,2013-01-05 07:32:00,
2013-01-05 02:47:00,34.5,20.0,30.07,West,270,4.0,14.0,55,0.00,,,0.00,weatherlink.com 1.10,2013-01-05 07:47:00,
2013-01-05 03:02:00,34.3,20.0,30.07,NW,316,6.0,14.0,55,0.00,,,0.00,weatherlink.com 1.10,2013-01-05 08:02:00,
2013-01-05 03:17:00,34.1,19.0,30.07,WNW,288,1.0,13.0,55,0.00,,,0.00,weatherlink.com 1.10,2013-01-05 08:17:00,
2013-01-05 03:32:00,34.0,20.0,30.07,NW,307,1.0,10.0,56,0.00,,,0.00,weatherlink.com 1.10,2013-01-05 08:32:00,
2013-01-05 03:48:00,33.8,19.0,30.08,WNW,283,2.0,13.0,56,0.00,,,0.00,weatherlink.com 1.10,2013-01-05 08:48:00,
2013-01-05 04:03:00,33.6,20.0,30.09,NW,322,4.0,13.0,57,0.00,,,0.00,weatherlink.com 1.10,2013-01-05 09:03:00,
2013-01-05 04:18:00,33.5,19.0,30.09,NW,310,9.0,12.0,56,0.00,,,0.00,weatherlink.com 1.10,2013-01-05 09:18:00,
2013-01-05 04:33:00,33.4,19.0,30.09,WNW,301,10.0,12.0,57,0.00,,,0.00,weatherlink.com 1.10,2013-01-05 09:33:00,
2013-01-05 04:48:00,33.4,19.0,30.10,WNW,303,1.0,10.0,57,0.00,,,0.00,weatherlink.com 1.10,2013-01-05 09:48:00,
2013-01-05 05:03:00,33.6,20.0,30.11,WNW,290,2.0,11.0,57,0.00,,,0.00,weatherlink.com 1.10,2013-01-05 10:03:00,
2013-01-05 05:18:00,33.5,20.0,30.11,WNW,293,1.0,10.0,58,0.00,,,0.00,weatherlink.com 1.10,2013-01-05 10:18:00,
2013-01-05 05:33:00,33.4,20.0,30.12,WNW,294,5.0,8.0,58,0.00,,,0.00,weatherlink.com 1.10,2013-01-05 10:33:00,
2013-01-05 05:48:00,33.3,20.0,30.13,NNW,327,2.0,8.0,59,0.00,,,0.00,weatherlink.com 1.10,2013-01-05 10:48:00,
2013-01-05 06:03:00,33.3,20.0,30.14,WNW,302,3.0,6.0,59,0.00,,,0.00,weatherlink.com 1.10,2013-01-05 11:03:00,
2013-01-05 06:18:00,33.3,20.0,30.15,WNW,295,6.0,10.0,59,0.00,,,0.00,weatherlink.com 1.10,2013-01-05 11:18:00,
2013-01-05 06:33:00,33.3,20.0,30.16,NW,325,3.0,9.0,59,0.00,,,0.00,weatherlink.com 1.10,2013-01-05 11:33:00,
2013-01-05 06:48:00,33.5,20.0,30.16,WNW,298,7.0,13.0,59,0.00,,,0.00,weatherlink.com 1.10,2013-01-05 11:48:00,
2013-01-05 07:03:00,33.5,20.0,30.17,WNW,283,4.0,9.0,59,0.00,,,0.00,weatherlink.com 1.10,2013-01-05 12:03:00,
2013-01-05 07:18:00,33.4,21.0,30.17,West,263,4.0,9.0,60,0.00,,,0.00,weatherlink.com 1.10,2013-01-05 12:18:00,
2013-01-05 07:33:00,33.5,21.0,30.19,NW,307,4.0,7.0,60,0.00,,,0.00,weatherlink.com 1.10,2013-01-05 12:33:00,
2013-01-05 07:48:00,33.7,21.0,30.19,West,280,2.0,8.0,61,0.00,,,0.00,weatherlink.com 1.10,2013-01-05 12:48:00,
2013-01-05 08:03:00,34.2,21.0,30.20,West,275,4.0,12.0,60,0.00,,,0.00,weatherlink.com 1.10,2013-01-05 13:03:00,
2013-01-05 08:18:00,34.7,22.0,30.21,NW,310,2.0,11.0,59,0.00,,,0.00,weatherlink.com 1.10,2013-01-05 13:18:00,
2013-01-05 08:33:00,35.0,22.0,30.21,WNW,285,3.0,7.0,59,0.00,,,0.00,weatherlink.com 1.10,2013-01-05 13:33:00,
2013-01-05 08:48:00,35.6,22.0,30.23,West,281,3.0,7.0,59,0.00,,,0.00,weatherlink.com 1.10,2013-01-05 13:48:00,
2013-01-05 09:03:00,35.9,23.0,30.24,WSW,255,3.0,7.0,59,0.00,,,0.00,weatherlink.com 1.10,2013-01-05 14:03:00,
2013-01-05 09:18:00,36.2,23.0,30.24,West,276,2.0,4.0,58,0.00,,,0.00,weatherlink.com 1.10,2013-01-05 14:18:00,
2013-01-05 09:33:00,36.3,23.0,30.24,WNW,291,4.0,6.0,58,0.00,,,0.00,weatherlink.com 1.10,2013-01-05 14:33:00,
2013-01-05 09:48:00,36.9,23.0,30.24,West,274,5.0,8.0,57,0.00,,,0.00,weatherlink.com 1.10,2013-01-05 14:48:00,
2013-01-05 10:03:00,37.9,23.0,30.25,WNW,285,2.0,7.0,55,0.00,,,0.00,weatherlink.com 1.10,2013-01-05 15:03:00,
2013-01-05 10:18:00,38.4,23.0,30.25,SW,235,4.0,8.0,55,0.00,,,0.00,weatherlink.com 1.10,2013-01-05 15:18:00,
2013-01-05 10:34:00,39.7,24.0,30.25,WNW,285,4.0,8.0,53,0.00,,,0.00,weatherlink.com 1.10,2013-01-05 15:34:00,
2013-01-05 10:49:00,40.4,23.0,30.25,West,280,7.0,16.0,50,0.00,,,0.00,weatherlink.com 1.10,2013-01-05 15:49:00,
2013-01-05 11:04:00,40.5,23.0,30.25,NW,315,6.0,17.0,49,0.00,,,0.00,weatherlink.com 1.10,2013-01-05 16:04:00,
2013-01-05 11:19:00,40.7,23.0,30.26,West,280,7.0,20.0,49,0.00,,,0.00,weatherlink.com 1.10,2013-01-05 16:19:00,
2013-01-05 11:34:00,41.0,23.0,30.24,WSW,245,1.0,17.0,49,0.00,,,0.00,weatherlink.com 1.10,2013-01-05 16:34:00,
2013-01-05 11:49:00,41.5,23.0,30.24,WNW,297,5.0,14.0,48,0.00,,,0.00,weatherlink.com 1.10,2013-01-05 16:49:00,
2013-01-05 12:04:00,41.8,23.0,30.23,NW,326,1.0,14.0,48,0.00,,,0.00,weatherlink.com 1.10,2013-01-05 17:04:00,
2013-01-05 12:19:00,42.3,24.0,30.22,West,267,2.0,11.0,48,0.00,,,0.00,weatherlink.com 1.10,2013-01-05 17:19:00,
2013-01-05 12:34:00,42.0,23.0,30.22,SW,225,4.0,12.0,47,0.00,,,0.00,weatherlink.com 1.10,2013-01-05 17:34:00,
2013-01-05 12:49:00,42.1,23.0,30.22,West,281,3.0,9.0,47,0.00,,,0.00,weatherlink.com 1.10,2013-01-05 17:49:00,
2013-01-05 13:04:00,42.7,24.0,30.22,SE,127,2.0,14.0,47,0.00,,,0.00,weatherlink.com 1.10,2013-01-05 18:04:00,
2013-01-05 13:19:00,42.6,23.0,30.22,West,274,4.0,11.0,46,0.00,,,0.00,weatherlink.com 1.10,2013-01-05 18:19:00,
2013-01-05 13:34:00,43.2,24.0,30.22,West,259,2.0,10.0,46,0.00,,,0.00,weatherlink.com 1.10,2013-01-05 18:34:00,
2013-01-05 13:49:00,43.7,23.0,30.22,WSW,257,3.0,7.0,44,0.00,,,0.00,weatherlink.com 1.10,2013-01-05 18:49:00,
2013-01-05 14:04:00,43.7,23.0,30.21,ENE,70,3.0,8.0,44,0.00,,,0.00,weatherlink.com 1.10,2013-01-05 19:04:00,
2013-01-05 14:19:00,43.3,23.0,30.21,West,278,5.0,8.0,45,0.00,,,0.00,weatherlink.com 1.10,2013-01-05 19:19:00,
2013-01-05 14:34:00,43.8,23.0,30.21,WNW,298,4.0,10.0,44,0.00,,,0.00,weatherlink.com 1.10,2013-01-05 19:34:00,
2013-01-05 14:49:00,43.4,23.0,30.22,West,280,1.0,7.0,45,0.00,,,0.00,weatherlink.com 1.10,2013-01-05 19:49:00,
2013-01-05 15:04:00,43.4,23.0,30.22,WNW,284,6.0,9.0,44,0.00,,,0.00,weatherlink.com 1.10,2013-01-05 20:04:00,
2013-01-05 15:19:00,42.7,23.0,30.22,WNW,285,4.0,9.0,45,0.00,,,0.00,weatherlink.com 1.10,2013-01-05 20:19:00,
2013-01-05 15:34:00,42.6,23.0,30.22,West,269,2.0,9.0,46,0.00,,,0.00,weatherlink.com 1.10,2013-01-05 20:34:00,
2013-01-05 15:49:00,42.5,23.0,30.22,NW,311,2.0,10.0,46,0.00,,,0.00,weatherlink.com 1.10,2013-01-05 20:49:00,
2013-01-05 16:04:00,42.3,23.0,30.23,NW,311,1.0,6.0,46,0.00,,,0.00,weatherlink.com 1.10,2013-01-05 21:04:00,
2013-01-05 16:19:00,42.0,23.0,30.23,NW,316,5.0,8.0,47,0.00,,,0.00,weatherlink.com 1.10,2013-01-05 21:19:00,
2013-01-05 16:34:00,41.9,23.0,30.22,WNW,283,1.0,6.0,47,0.00,,,0.00,weatherlink.com 1.10,2013-01-05 21:34:00,
2013-01-05 16:49:00,41.7,23.0,30.22,West,271,3.0,5.0,48,0.00,,,0.00,weatherlink.com 1.10,2013-01-05 21:49:00,
2013-01-05 17:04:00,41.4,23.0,30.22,WNW,301,2.0,6.0,48,0.00,,,0.00,weatherlink.com 1.10,2013-01-05 22:04:00,
2013-01-05 17:19:00,41.4,23.0,30.23,WSW,246,7.0,7.0,48,0.00,,,0.00,weatherlink.com 1.10,2013-01-05 22:19:00,
2013-01-05 17:34:00,41.5,23.0,30.24,West,260,2.0,8.0,48,0.00,,,0.00,weatherlink.com 1.10,2013-01-05 22:34:00,
2013-01-05 17:49:00,41.5,23.0,30.24,WNW,287,0.0,5.0,48,0.00,,,0.00,weatherlink.com 1.10,2013-01-05 22:49:00,
2013-01-05 18:04:00,41.5,22.0,30.25,West,281,0.0,6.0,47,0.00,,,0.00,weatherlink.com 1.10,2013-01-05 23:04:00,
2013-01-05 18:19:00,41.4,23.0,30.25,West,276,1.0,4.0,48,0.00,,,0.00,weatherlink.com 1.10,2013-01-05 23:19:00,
2013-01-05 18:34:00,41.3,23.0,30.25,WNW,287,1.0,4.0,48,0.00,,,0.00,weatherlink.com 1.10,2013-01-05 23:34:00,
2013-01-05 18:49:00,40.9,24.0,30.24,SW,231,2.0,7.0,51,0.00,,,0.00,weatherlink.com 1.10,2013-01-05 23:49:00,
2013-01-05 19:04:00,39.9,24.0,30.26,WNW,285,3.0,7.0,54,0.00,,,0.00,weatherlink.com 1.10,2013-01-06 00:04:00,
2013-01-05 19:19:00,39.3,25.0,30.25,West,268,2.0,6.0,56,0.00,,,0.00,weatherlink.com 1.10,2013-01-06 00:19:00,
2013-01-05 19:34:00,38.9,25.0,30.25,WNW,302,1.0,5.0,57,0.00,,,0.00,weatherlink.com 1.10,2013-01-06 00:34:00,
2013-01-05 19:49:00,38.8,25.0,30.25,WNW,286,2.0,5.0,58,0.00,,,0.00,weatherlink.com 1.10,2013-01-06 00:49:00,
2013-01-05 20:04:00,38.6,25.0,30.24,West,273,1.0,5.0,58,0.00,,,0.00,weatherlink.com 1.10,2013-01-06 01:04:00,
2013-01-05 20:19:00,38.4,25.0,30.23,WNW,302,0.0,3.0,59,0.00,,,0.00,weatherlink.com 1.10,2013-01-06 01:19:00,
2013-01-05 20:34:00,38.3,25.0,30.23,West,278,0.0,3.0,59,0.00,,,0.00,weatherlink.com 1.10,2013-01-06 01:34:00,
2013-01-05 20:49:00,38.2,25.0,30.22,SW,221,1.0,4.0,59,0.00,,,0.00,weatherlink.com 1.10,2013-01-06 01:49:00,
2013-01-05 21:04:00,38.2,25.0,30.23,SSW,207,0.0,4.0,59,0.00,,,0.00,weatherlink.com 1.10,2013-01-06 02:04:00,
2013-01-05 21:19:00,38.3,25.0,30.23,WNW,287,2.0,5.0,58,0.00,,,0.00,weatherlink.com 1.10,2013-01-06 02:19:00,
2013-01-05 21:34:00,38.3,25.0,30.23,WNW,287,0.0,3.0,58,0.00,,,0.00,weatherlink.com 1.10,2013-01-06 02:34:00,
2013-01-05 21:49:00,38.1,24.0,30.23,West,280,1.0,3.0,58,0.00,,,0.00,weatherlink.com 1.10,2013-01-06 02:49:00,
2013-01-05 22:04:00,37.8,24.0,30.22,SSW,201,0.0,3.0,59,0.00,,,0.00,weatherlink.com 1.10,2013-01-06 03:04:00,
2013-01-05 22:19:00,37.7,24.0,30.22,NW,312,1.0,3.0,59,0.00,,,0.00,weatherlink.com 1.10,2013-01-06 03:19:00,
2013-01-05 22:34:00,37.6,24.0,30.20,WNW,302,1.0,5.0,59,0.00,,,0.00,weatherlink.com 1.10,2013-01-06 03:34:00,
2013-01-05 22:49:00,37.5,25.0,30.20,SW,226,2.0,3.0,60,0.00,,,0.00,weatherlink.com 1.10,2013-01-06 03:49:00,
2013-01-05 23:04:00,37.5,24.0,30.21,South,191,0.0,3.0,59,0.00,,,0.00,weatherlink.com 1.10,2013-01-06 04:04:00,
2013-01-05 23:19:00,37.3,24.0,30.21,WNW,283,2.0,4.0,59,0.00,,,0.00,weatherlink.com 1.10,2013-01-06 04:19:00,
2013-01-05 23:34:00,37.1,24.0,30.19,West,277,1.0,4.0,60,0.00,,,0.00,weatherlink.com 1.10,2013-01-06 04:34:00,
2013-01-05 23:49:00,37.0,25.0,30.19,WNW,292,1.0,5.0,61,0.00,,,0.00,weatherlink.com 1.10,2013-01-06 04:49:00,